DD5ASA Weather Reports


time (UTC)temp
C
wind
direction
speed
KPH
gust
KPH
rain 1hr
cm
rain 24hr
cm
rain mn
cm
humidity
%
barometer
mb
20260906022033 13 300 3.2 6.4 0.00 0.00 0.00 67 1026.5
20260906021037 13 271 1.6 4.8 0.00 0.00 0.00 66 1026.5
20260906020044 13 270 3.2 4.8 0.00 0.00 0.00 66 1026.5
20260906015045 13 260 3.2 4.8 0.00 0.00 0.00 66 1026.5
20260906014039 13 259 4.8 6.4 0.00 0.00 0.00 66 1026.5
20260906013038 13 245 3.2 6.4 0.00 0.00 0.00 65 1026.5
20260906012017 13 253 3.2 8.0 0.00 0.00 0.00 66 1026.5
20260906011019 13 220 6.4 12.9 0.00 0.00 0.00 66 1026.5
20260906010045 13 261 4.8 9.7 0.00 0.00 0.00 66 1026.5
20260906005015 13 246 3.2 4.8 0.00 0.10 0.00 67 1026.5
20260906004015 13 252 1.6 3.2 0.00 0.10 0.00 68 1026.5
20260906003030 13 248 3.2 4.8 0.00 0.10 0.00 69 1026.5
20260906002040 13 273 1.6 3.2 0.00 0.10 0.00 67 1026.5
20260906001021 13 243 1.6 3.2 0.00 0.10 0.00 68 1026.5
20260906000022 13 239 3.2 4.8 0.00 0.10 0.00 67 1026.5
20260905235017 13 255 1.6 3.2 0.00 0.10 0.00 67 1026.5
20260905234050 13 237 3.2 4.8 0.00 0.10 0.00 68 1026.5
20260905233152 13 332 3.2 6.4 0.00 0.10 0.00 69 1025.6
20260905232023 13 253 1.6 3.2 0.00 0.10 0.00 66 1025.4
20260905231144 13 225 0.0 1.6 0.00 0.10 0.00 67 1025.4
20260905230049 14 234 3.2 4.8 0.00 0.10 0.00 66 1025.4
20260905225032 14 270 0.0 1.6 0.00 0.10 0.00 65 1025.4
20260905224030 14 270 0.0 3.2 0.00 0.10 0.00 65 1025.4
20260905223030 14 0.0 0.0 0.00 0.10 0.00 64 1025.4
20260905222031 14 0.0 0.0 0.00 0.10 0.00 63 1025.4
20260905221024 14 0.0 0.0 0.00 0.10 0.00 64 1025.4
20260905220051 14 225 1.6 3.2 0.00 0.10 0.00 65 1025.4
20260905215015 14 233 1.6 3.2 0.00 0.33 0.30 64 1025.4
20260905214051 15 264 1.6 3.2 0.00 0.33 0.30 64 1025.4
20260905213044 15 0.0 0.0 0.00 0.33 0.30 63 1025.4
20260905211534 15 0.0 0.0 0.00 0.33 0.30 63 1025.4
20260905210518 15 231 1.6 3.2 0.00 0.33 0.30 63 1025.4
20260905205544 15 0 0.0 3.2 0.00 0.84 0.30 62 1024.4
20260905204542 15 238 3.2 4.8 0.00 0.84 0.30 63 1024.4
20260905203041 15 237 3.2 4.8 0.00 0.84 0.30 61 1024.4
20260905202026 15 246 3.2 4.8 0.00 0.84 0.30 61 1024.4
20260905201042 15 0.0 0.0 0.00 0.84 0.30 60 1024.4
20260905200035 15 270 0.0 6.4 0.00 0.84 0.30 59 1024.4
20260905195021 15 232 3.2 4.8 0.00 0.84 0.30 59 1024.4
20260905194057 15 256 3.2 4.8 0.00 0.84 0.30 57 1024.4
20260905193034 15 254 4.8 9.7 0.00 0.84 0.30 57 1023.5
20260905192018 15 237 3.2 4.8 0.00 0.84 0.30 57 1023.3
20260905191104 16 250 3.2 4.8 0.00 0.84 0.30 57 1023.3
20260905190054 16 209 3.2 4.8 0.00 0.84 0.30 55 1023.3
20260905185017 16 270 4.8 8.0 0.00 0.94 0.30 55 1023.3
20260905184037 16 280 6.4 12.9 0.00 0.94 0.30 52 1023.3
20260905183056 16 344 4.8 8.0 0.00 0.94 0.30 49 1023.3
20260905182017 16 317 8.0 9.7 0.00 0.94 0.30 48 1023.3
20260905181050 17 347 6.4 11.3 0.00 0.94 0.30 46 1022.3
20260905175522 17 340 6.4 8.0 0.00 0.94 0.30 45 1022.3
20260905174550 17 204 6.4 11.3 0.00 0.94 0.30 43 1022.3
20260905173050 18 245 6.4 11.3 0.00 0.94 0.30 42 1022.3
20260905172041 18 260 4.8 8.0 0.00 0.94 0.30 42 1022.3
20260905171034 18 281 8.0 11.3 0.00 0.94 0.30 41 1022.3
20260905170018 18 262 4.8 9.7 0.00 0.94 0.30 41 1022.3
20260905165058 18 261 8.0 16.1 0.00 0.94 0.30 40 1022.3
20260905164042 18 267 6.4 9.7 0.00 0.94 0.30 41 1022.3
20260905162524 18 269 6.4 12.9 0.00 0.94 0.30 39 1021.3
20260905161531 19 277 8.0 9.7 0.00 0.94 0.30 39 1021.3
20260905160533 20 280 4.8 8.0 0.00 0.94 0.30 39 1021.3
20260905155549 20 251 6.4 8.0 0.00 0.94 0.30 39 1021.3
20260905154544 20 245 12.9 16.1 0.00 0.94 0.30 38 1021.3
20260905153528 20 223 9.7 12.9 0.00 0.94 0.30 39 1021.3
20260905152537 20 225 9.7 14.5 0.00 0.94 0.30 38 1021.3
20260905151524 20 240 8.0 11.3 0.00 0.94 0.30 38 1021.3
20260905150600 20 248 9.7 12.9 0.00 0.94 0.30 38 1021.3
20260905145524 21 241 8.0 11.3 0.00 0.94 0.30 37 1021.3
20260905144537 21 227 12.9 16.1 0.00 0.94 0.30 37 1021.3
20260905143539 21 215 12.9 20.9 0.00 0.94 0.30 38 1021.3
20260905142516 21 238 9.7 14.5 0.00 0.94 0.30 38 1021.3
20260905141544 21 212 11.3 14.5 0.00 0.94 0.30 40 1021.3
20260905140611 20 232 8.0 9.7 0.00 0.94 0.30 41 1021.3
20260905135515 20 231 6.4 11.3 0.00 0.94 0.30 40 1021.3
20260905134557 19 220 11.3 16.1 0.00 0.94 0.30 41 1021.3
20260905133611 20 293 6.4 9.7 0.00 0.94 0.30 42 1021.3
20260905132535 19 282 9.7 14.5 0.00 0.94 0.30 43 1021.3
20260905131523 20 238 6.4 11.3 0.00 0.94 0.30 43 1021.3
20260905130607 19 261 4.8 9.7 0.00 0.94 0.30 42 1021.3
20260905125606 20 217 9.7 12.9 0.00 0.94 0.30 41 1021.3
20260905124531 21 249 11.3 19.3 0.00 0.94 0.30 39 1021.3
20260905123544 21 263 6.4 9.7 0.00 0.94 0.30 41 1021.3
20260905122526 21 217 11.3 16.1 0.00 0.94 0.30 40 1021.3
20260905121551 20 313 8.0 16.1 0.00 0.94 0.30 43 1021.3
20260905120539 20 253 9.7 16.1 0.00 0.94 0.30 42 1021.3
20260905115554 20 237 11.3 16.1 0.00 0.94 0.30 42 1021.3
20260905114517 18 215 11.3 25.7 0.00 0.94 0.30 43 1021.3
20260905113600 20 227 8.0 11.3 0.00 0.94 0.30 43 1021.3
20260905112542 19 226 11.3 16.1 0.00 0.94 0.30 44 1021.3
20260905111046 18 252 11.3 16.1 0.00 0.94 0.30 45 1021.3
20260905105551 18 261 6.4 8.0 0.00 0.94 0.30 46 1021.3
20260905104534 20 250 11.3 14.5 0.00 0.94 0.30 46 1021.3
20260905103518 20 225 16.1 19.3 0.00 0.94 0.30 46 1021.3
20260905102521 19 239 9.7 12.9 0.00 0.94 0.30 47 1021.3
20260905101542 18 276 6.4 9.7 0.00 0.94 0.30 48 1021.3
20260905100526 20 278 9.7 11.3 0.00 0.94 0.30 47 1021.3
20260905095534 19 242 14.5 20.9 0.00 0.94 0.30 47 1021.3
20260905094551 19 223 6.4 8.0 0.00 0.94 0.30 47 1021.3
20260905093534 18 270 11.3 16.1 0.00 0.94 0.30 48 1021.3
20260905092538 19 237 9.7 14.5 0.00 0.94 0.30 48 1021.3
20260905091558 19 251 8.0 9.7 0.00 0.94 0.30 50 1021.3
20260905090526 18 280 8.0 11.3 0.00 0.94 0.30 55 1021.3
20260905085554 18 293 8.0 14.5 0.00 0.94 0.30 55 1021.3
20260905084558 17 299 9.7 12.9 0.00 0.94 0.30 58 1020.6
20260905083533 18 298 11.3 12.9 0.00 0.94 0.30 61 1020.2
20260905082601 16 280 6.4 11.3 0.00 0.94 0.30 64 1020.2
20260905081515 17 214 8.0 12.9 0.00 0.94 0.30 62 1020.2
20260905080535 18 227 11.3 14.5 0.00 0.94 0.30 58 1020.2
20260905075537 17 276 8.0 16.1 0.00 0.94 0.30 62 1020.2
20260905074537 17 241 6.4 11.3 0.00 0.94 0.30 64 1020.2
20260905073522 16 220 8.0 9.7 0.00 0.94 0.30 69 1020.2
20260905072557 15 215 6.4 9.7 0.00 0.94 0.30 71 1020.2
20260905071557 15 293 6.4 12.9 0.00 0.94 0.30 73 1020.2
20260905070545 15 211 3.2 4.8 0.00 0.94 0.30 74 1020.2
20260905065545 15 228 4.8 6.4 0.00 0.94 0.30 75 1020.2
20260905064612 14 242 4.8 4.8 0.00 0.94 0.30 76 1020.2
20260905063520 14 234 4.8 6.4 0.00 0.94 0.30 78 1020.2
20260905062532 14 231 4.8 6.4 0.00 0.94 0.30 78 1020.2
20260905061555 14 242 4.8 6.4 0.00 0.94 0.30 78 1019.6
20260905060518 14 240 4.8 9.7 0.00 0.94 0.30 79 1019.2
20260905055532 14 230 6.4 9.7 0.00 1.04 0.30 79 1019.2
20260905054614 14 231 4.8 6.4 0.00 1.04 0.30 79 1019.2
20260905053543 14 238 3.2 4.8 0.00 1.04 0.30 79 1019.2
20260905052527 14 242 3.2 6.4 0.00 1.04 0.30 79 1019.2
20260905051611 13 243 4.8 6.4 0.00 1.04 0.30 79 1019.2
20260905050515 13 267 4.8 9.7 0.00 1.04 0.30 79 1019.2
20260905045032 13 245 1.6 3.2 0.00 1.04 0.30 79 1018.2
20260905043020 13 218 1.6 3.2 0.00 1.04 0.30 78 1018.2
20260905042034 13 254 1.6 3.2 0.00 1.04 0.30 79 1018.2
20260905041038 13 247 3.2 4.8 0.00 1.04 0.30 78 1018.2
20260905040058 13 244 3.2 3.2 0.00 1.04 0.30 79 1018.2
20260905035023 14 229 4.8 6.4 0.00 1.04 0.30 79 1018.2
20260905034031 14 225 3.2 4.8 0.00 1.04 0.30 79 1018.2
20260905033038 14 218 3.2 3.2 0.00 1.04 0.30 79 1018.2
20260905032042 14 225 1.6 4.8 0.00 1.04 0.30 79 1018.2
20260905031024 14 254 3.2 4.8 0.00 1.04 0.30 79 1018.2
20260905030051 14 240 4.8 4.8 0.00 1.04 0.30 79 1018.2
20260905024520 14 255 0.0 3.2 0.00 1.04 0.30 80 1018.2
20260905023534 14 225 3.2 4.8 0.00 1.04 0.30 80 1018.2